Year,Month,Day,Hour,Minute,Value (Times are PST for temperature in C)
2014,04,30,00,00,8.30
2014,04,30,00,01,8.30
2014,04,30,00,02,8.20
2014,04,30,00,03,8.20
2014,04,30,00,04,8.20
2014,04,30,00,05,8.10
2014,04,30,00,06,8.10
2014,04,30,00,07,8.10
2014,04,30,00,08,8.00
2014,04,30,00,09,8.00
2014,04,30,00,10,7.90
2014,04,30,00,11,7.90
2014,04,30,00,12,7.90
2014,04,30,00,13,7.90
2014,04,30,00,14,7.90
2014,04,30,00,15,8.00
2014,04,30,00,16,8.00
2014,04,30,00,17,8.00
2014,04,30,00,18,8.00
2014,04,30,00,19,8.00
2014,04,30,00,20,8.00
2014,04,30,00,21,8.00
2014,04,30,00,22,8.00
2014,04,30,00,23,8.00
2014,04,30,00,24,8.00
2014,04,30,00,25,8.00
2014,04,30,00,26,8.10
2014,04,30,00,27,8.10
2014,04,30,00,28,8.10
2014,04,30,00,29,8.10
2014,04,30,00,30,8.10
2014,04,30,00,31,8.10
2014,04,30,00,32,8.10
2014,04,30,00,33,8.10
2014,04,30,00,34,8.10
2014,04,30,00,35,8.10
2014,04,30,00,36,8.10
2014,04,30,00,37,8.00
2014,04,30,00,38,8.00
2014,04,30,00,39,8.00
2014,04,30,00,40,8.00
2014,04,30,00,41,8.00
2014,04,30,00,42,7.90
2014,04,30,00,43,7.90
2014,04,30,00,44,7.90
2014,04,30,00,45,7.90
2014,04,30,00,46,7.90
2014,04,30,00,47,7.90
2014,04,30,00,48,7.90
2014,04,30,00,49,7.90
2014,04,30,00,50,7.90
2014,04,30,00,51,7.90
2014,04,30,00,52,7.90
2014,04,30,00,53,7.90
2014,04,30,00,54,7.90
2014,04,30,00,55,7.90
2014,04,30,00,56,8.00
2014,04,30,00,57,8.00
2014,04,30,00,58,8.00
2014,04,30,00,59,8.00
2014,04,30,01,00,8.00
2014,04,30,01,01,8.00
2014,04,30,01,02,8.00
2014,04,30,01,03,8.00
2014,04,30,01,04,8.00
2014,04,30,01,05,8.00
2014,04,30,01,06,8.00
2014,04,30,01,07,8.00
2014,04,30,01,08,8.00
2014,04,30,01,09,8.00
2014,04,30,01,10,8.00
2014,04,30,01,11,8.00
2014,04,30,01,12,8.00
2014,04,30,01,13,8.00
2014,04,30,01,14,8.00
2014,04,30,01,15,7.90
2014,04,30,01,16,7.90
2014,04,30,01,17,7.90
2014,04,30,01,18,7.90
2014,04,30,01,19,7.90
2014,04,30,01,20,7.90
2014,04,30,01,21,7.90
2014,04,30,01,22,7.80
2014,04,30,01,23,7.80
2014,04,30,01,24,7.80
2014,04,30,01,25,7.80
2014,04,30,01,26,7.80
2014,04,30,01,27,7.80
2014,04,30,01,28,7.80
2014,04,30,01,29,7.80
2014,04,30,01,30,7.80
2014,04,30,01,31,7.80
2014,04,30,01,32,7.90
2014,04,30,01,33,7.90
2014,04,30,01,34,7.90
2014,04,30,01,35,7.90
2014,04,30,01,36,7.80
2014,04,30,01,37,7.80
2014,04,30,01,38,7.80
2014,04,30,01,39,7.80
2014,04,30,01,40,7.70
2014,04,30,01,41,7.70
2014,04,30,01,42,7.70
2014,04,30,01,43,7.70
2014,04,30,01,44,7.70
2014,04,30,01,45,7.70
2014,04,30,01,46,7.60
2014,04,30,01,47,7.60
2014,04,30,01,48,7.60
2014,04,30,01,49,7.60
2014,04,30,01,50,7.60
2014,04,30,01,51,7.60
2014,04,30,01,52,7.60
2014,04,30,01,53,7.60
2014,04,30,01,54,7.50
2014,04,30,01,55,7.50
2014,04,30,01,56,7.50
2014,04,30,01,57,7.50
2014,04,30,01,58,7.50
2014,04,30,01,59,7.50
2014,04,30,02,00,7.50
2014,04,30,02,01,7.60
2014,04,30,02,02,7.60
2014,04,30,02,03,7.60
2014,04,30,02,04,7.70
2014,04,30,02,05,7.80
2014,04,30,02,06,7.80
2014,04,30,02,07,7.90
2014,04,30,02,08,8.00
2014,04,30,02,09,8.00
2014,04,30,02,10,8.20
2014,04,30,02,11,8.30
2014,04,30,02,12,8.60
2014,04,30,02,13,8.80
2014,04,30,02,14,9.00
2014,04,30,02,15,9.30
2014,04,30,02,16,9.60
2014,04,30,02,17,9.90
2014,04,30,02,18,10.20
2014,04,30,02,19,10.50
2014,04,30,02,20,10.80
2014,04,30,02,21,11.00
2014,04,30,02,22,11.20
2014,04,30,02,23,11.40
2014,04,30,02,24,11.50
2014,04,30,02,25,11.60
2014,04,30,02,26,11.70
2014,04,30,02,27,11.80
2014,04,30,02,28,11.90
2014,04,30,02,29,11.90
2014,04,30,02,30,11.90
2014,04,30,02,31,12.00
2014,04,30,02,32,12.00
2014,04,30,02,33,12.00
2014,04,30,02,34,12.10
2014,04,30,02,35,12.10
2014,04,30,02,36,12.10
2014,04,30,02,37,12.10
2014,04,30,02,38,12.10
2014,04,30,02,39,12.20
2014,04,30,02,40,12.30
2014,04,30,02,41,12.30
2014,04,30,02,42,12.50
2014,04,30,02,43,12.50
2014,04,30,02,44,12.60
2014,04,30,02,45,12.70
2014,04,30,02,46,12.80
2014,04,30,02,47,12.80
2014,04,30,02,48,12.90
2014,04,30,02,49,13.00
2014,04,30,02,50,13.10
2014,04,30,02,51,13.20
2014,04,30,02,52,13.30
2014,04,30,02,53,13.30
2014,04,30,02,54,13.40
2014,04,30,02,55,13.40
2014,04,30,02,56,13.40
2014,04,30,02,57,13.50
2014,04,30,02,58,13.50
2014,04,30,02,59,13.50
2014,04,30,03,00,13.60
2014,04,30,03,01,13.60
2014,04,30,03,02,13.60
2014,04,30,03,03,13.60
2014,04,30,03,04,13.60
2014,04,30,03,05,13.50
2014,04,30,03,06,13.50
2014,04,30,03,07,13.50
2014,04,30,03,08,13.50
2014,04,30,03,09,13.40
2014,04,30,03,10,13.40
2014,04,30,03,11,13.40
2014,04,30,03,12,13.40
2014,04,30,03,13,13.40
2014,04,30,03,14,13.40
2014,04,30,03,15,13.40
2014,04,30,03,16,13.40
2014,04,30,03,17,13.40
2014,04,30,03,18,13.40
2014,04,30,03,19,13.40
2014,04,30,03,20,13.50
2014,04,30,03,21,13.50
2014,04,30,03,22,13.50
2014,04,30,03,23,13.40
2014,04,30,03,24,13.40
2014,04,30,03,25,13.40
2014,04,30,03,26,13.40
2014,04,30,03,27,13.40
2014,04,30,03,28,13.40
2014,04,30,03,29,13.40
2014,04,30,03,30,13.40
2014,04,30,03,31,13.40
2014,04,30,03,32,13.30
2014,04,30,03,33,13.30
2014,04,30,03,34,13.30
2014,04,30,03,35,13.30
2014,04,30,03,36,13.30
2014,04,30,03,37,13.30
2014,04,30,03,38,13.30
2014,04,30,03,39,13.20
2014,04,30,03,40,13.20
2014,04,30,03,41,13.20
2014,04,30,03,42,13.20
2014,04,30,03,43,13.10
2014,04,30,03,44,13.10
2014,04,30,03,45,13.10
2014,04,30,03,46,13.10
2014,04,30,03,47,13.10
2014,04,30,03,48,13.10
2014,04,30,03,49,13.00
2014,04,30,03,50,13.00
2014,04,30,03,51,13.00
2014,04,30,03,52,13.00
2014,04,30,03,53,13.00
2014,04,30,03,54,13.00
2014,04,30,03,55,13.00
2014,04,30,03,56,13.00
2014,04,30,03,57,13.00
2014,04,30,03,58,13.00
2014,04,30,03,59,13.10
2014,04,30,04,00,13.10
2014,04,30,04,01,13.10
2014,04,30,04,02,13.10
2014,04,30,04,03,13.10
2014,04,30,04,04,13.10
2014,04,30,04,05,13.00
2014,04,30,04,06,13.00
2014,04,30,04,07,13.00
2014,04,30,04,08,12.90
2014,04,30,04,09,12.90
2014,04,30,04,10,12.90
2014,04,30,04,11,12.90
2014,04,30,04,12,12.90
2014,04,30,04,13,12.90
2014,04,30,04,14,12.90
2014,04,30,04,15,12.80
2014,04,30,04,16,12.80
2014,04,30,04,17,12.80
2014,04,30,04,18,12.80
2014,04,30,04,19,12.80
2014,04,30,04,20,12.80
2014,04,30,04,21,12.80
2014,04,30,04,22,12.80
2014,04,30,04,23,12.70
2014,04,30,04,24,12.70
2014,04,30,04,25,12.70
2014,04,30,04,26,12.70
2014,04,30,04,27,12.70
2014,04,30,04,28,12.70
2014,04,30,04,29,12.70
2014,04,30,04,30,12.70
2014,04,30,04,31,12.70
2014,04,30,04,32,12.70
2014,04,30,04,33,12.70
2014,04,30,04,34,12.70
2014,04,30,04,35,12.70
2014,04,30,04,36,12.70
2014,04,30,04,37,12.70
2014,04,30,04,38,12.70
2014,04,30,04,39,12.70
2014,04,30,04,40,12.70
2014,04,30,04,41,12.80
2014,04,30,04,42,12.80
2014,04,30,04,43,12.80
2014,04,30,04,44,12.80
2014,04,30,04,45,12.80
2014,04,30,04,46,12.70
2014,04,30,04,47,12.70
2014,04,30,04,48,12.70
2014,04,30,04,49,12.70
2014,04,30,04,50,12.70
2014,04,30,04,51,12.60
2014,04,30,04,52,12.50
2014,04,30,04,53,12.50
2014,04,30,04,54,12.40
2014,04,30,04,55,12.40
2014,04,30,04,56,12.30
2014,04,30,04,57,12.30
2014,04,30,04,58,12.30
2014,04,30,04,59,12.30
2014,04,30,05,00,12.30
2014,04,30,05,01,12.30
2014,04,30,05,02,12.30
2014,04,30,05,03,12.30
2014,04,30,05,04,12.30
2014,04,30,05,05,12.30
2014,04,30,05,06,12.30
2014,04,30,05,07,12.40
2014,04,30,05,08,12.40
2014,04,30,05,09,12.40
2014,04,30,05,10,12.40
2014,04,30,05,11,12.40
2014,04,30,05,12,12.40
2014,04,30,05,13,12.40
2014,04,30,05,14,12.40
2014,04,30,05,15,12.40
2014,04,30,05,16,12.40
2014,04,30,05,17,12.40
2014,04,30,05,18,12.40
2014,04,30,05,19,12.40
2014,04,30,05,20,12.40
2014,04,30,05,21,12.40
2014,04,30,05,22,12.40
2014,04,30,05,23,12.40
2014,04,30,05,24,12.40
2014,04,30,05,25,12.50
2014,04,30,05,26,12.40
2014,04,30,05,27,12.40
2014,04,30,05,28,12.40
2014,04,30,05,29,12.40
2014,04,30,05,30,12.40
2014,04,30,05,31,12.40
2014,04,30,05,32,12.40
2014,04,30,05,33,12.30
2014,04,30,05,34,12.30
2014,04,30,05,35,12.30
2014,04,30,05,36,12.30
2014,04,30,05,37,12.30
2014,04,30,05,38,12.30
2014,04,30,05,39,12.30
2014,04,30,05,40,12.30
2014,04,30,05,41,12.30
2014,04,30,05,42,12.30
2014,04,30,05,43,12.30
2014,04,30,05,44,12.30
2014,04,30,05,45,12.30
2014,04,30,05,46,12.30
2014,04,30,05,47,12.30
2014,04,30,05,48,12.30
2014,04,30,05,49,12.40
2014,04,30,05,50,12.40
2014,04,30,05,51,12.40
2014,04,30,05,52,12.50
2014,04,30,05,53,12.50
2014,04,30,05,54,12.50
2014,04,30,05,55,12.50
2014,04,30,05,56,12.50
2014,04,30,05,57,12.60
2014,04,30,05,58,12.60
2014,04,30,05,59,12.60
2014,04,30,06,00,12.70
2014,04,30,06,01,12.70
2014,04,30,06,02,12.70
2014,04,30,06,03,12.70
2014,04,30,06,04,12.80
2014,04,30,06,05,12.80
2014,04,30,06,06,12.80
2014,04,30,06,07,12.80
2014,04,30,06,08,12.80
2014,04,30,06,09,12.80
2014,04,30,06,10,12.80
2014,04,30,06,11,12.80
2014,04,30,06,12,12.80
2014,04,30,06,13,12.80
2014,04,30,06,14,12.90
2014,04,30,06,15,12.90
2014,04,30,06,16,12.90
2014,04,30,06,17,12.90
2014,04,30,06,18,12.90
2014,04,30,06,19,13.00
2014,04,30,06,20,13.00
2014,04,30,06,21,13.00
2014,04,30,06,22,13.00
2014,04,30,06,23,13.10
2014,04,30,06,24,13.10
2014,04,30,06,25,13.10
2014,04,30,06,26,13.10
2014,04,30,06,27,13.10
2014,04,30,06,28,13.20
2014,04,30,06,29,13.20
2014,04,30,06,30,13.20
2014,04,30,06,31,13.20
2014,04,30,06,32,13.20
2014,04,30,06,33,13.20
2014,04,30,06,34,13.20
2014,04,30,06,35,13.20
2014,04,30,06,36,13.20
2014,04,30,06,37,13.20
2014,04,30,06,38,13.20
2014,04,30,06,39,13.20
2014,04,30,06,40,13.20
2014,04,30,06,41,13.20
2014,04,30,06,42,13.20
2014,04,30,06,43,13.20
2014,04,30,06,44,13.10
2014,04,30,06,45,13.10
2014,04,30,06,46,13.10
2014,04,30,06,47,13.10
2014,04,30,06,48,13.10
2014,04,30,06,49,13.10
2014,04,30,06,50,13.10
2014,04,30,06,51,13.10
2014,04,30,06,52,13.10
2014,04,30,06,53,13.10
2014,04,30,06,54,13.10
2014,04,30,06,55,13.20
2014,04,30,06,56,13.20
2014,04,30,06,57,13.20
2014,04,30,06,58,13.30
2014,04,30,06,59,13.30
2014,04,30,07,00,13.40
2014,04,30,07,01,13.40
2014,04,30,07,02,13.50
2014,04,30,07,03,13.50
2014,04,30,07,04,13.60
2014,04,30,07,05,13.60
2014,04,30,07,06,13.60
2014,04,30,07,07,13.70
2014,04,30,07,08,13.70
2014,04,30,07,09,13.70
2014,04,30,07,10,13.70
2014,04,30,07,11,13.70
2014,04,30,07,12,13.80
2014,04,30,07,13,13.80
2014,04,30,07,14,13.80
2014,04,30,07,15,13.80
2014,04,30,07,16,13.80
2014,04,30,07,17,13.90
2014,04,30,07,18,13.90
2014,04,30,07,19,13.90
2014,04,30,07,20,13.90
2014,04,30,07,21,14.00
2014,04,30,07,22,14.00
2014,04,30,07,23,14.00
2014,04,30,07,24,14.10
2014,04,30,07,25,14.10
2014,04,30,07,26,14.10
2014,04,30,07,27,14.10
2014,04,30,07,28,14.10
2014,04,30,07,29,14.10
2014,04,30,07,30,14.20
2014,04,30,07,31,14.20
2014,04,30,07,32,14.20
2014,04,30,07,33,14.20
2014,04,30,07,34,14.20
2014,04,30,07,35,14.20
2014,04,30,07,36,14.20
2014,04,30,07,37,14.20
2014,04,30,07,38,14.30
2014,04,30,07,39,14.30
2014,04,30,07,40,14.30
2014,04,30,07,41,14.30
2014,04,30,07,42,14.30
2014,04,30,07,43,14.30
2014,04,30,07,44,14.30
2014,04,30,07,45,14.40
2014,04,30,07,46,14.40
2014,04,30,07,47,14.40
2014,04,30,07,48,14.40
2014,04,30,07,49,14.40
2014,04,30,07,50,14.40
2014,04,30,07,51,14.50
2014,04,30,07,52,14.50
2014,04,30,07,53,14.50
2014,04,30,07,54,14.60
2014,04,30,07,55,14.60
2014,04,30,07,56,14.60
2014,04,30,07,57,14.60
2014,04,30,07,58,14.70
2014,04,30,07,59,14.70
2014,04,30,08,00,14.70
2014,04,30,08,01,14.80
2014,04,30,08,02,14.80
2014,04,30,08,03,14.90
2014,04,30,08,04,14.90
2014,04,30,08,05,14.90
2014,04,30,08,06,14.90
2014,04,30,08,07,15.00
2014,04,30,08,08,15.00
2014,04,30,08,09,15.00
2014,04,30,08,10,15.00
2014,04,30,08,11,15.10
2014,04,30,08,12,15.10
2014,04,30,08,13,15.10
2014,04,30,08,14,15.10
2014,04,30,08,15,15.20
2014,04,30,08,16,15.20
2014,04,30,08,17,15.20
2014,04,30,08,18,15.20
2014,04,30,08,19,15.30
2014,04,30,08,20,15.30
2014,04,30,08,21,15.30
2014,04,30,08,22,15.40
2014,04,30,08,23,15.40
2014,04,30,08,24,15.50
2014,04,30,08,25,15.50
2014,04,30,08,26,15.60
2014,04,30,08,27,15.60
2014,04,30,08,28,15.60
2014,04,30,08,29,15.60
2014,04,30,08,30,15.60
2014,04,30,08,31,15.60
2014,04,30,08,32,15.60
2014,04,30,08,33,15.60
2014,04,30,08,34,15.60
2014,04,30,08,35,15.60
2014,04,30,08,36,15.60
2014,04,30,08,37,15.60
2014,04,30,08,38,15.60
2014,04,30,08,39,15.70
2014,04,30,08,40,15.70
2014,04,30,08,41,15.70
2014,04,30,08,42,15.80
2014,04,30,08,43,15.80
2014,04,30,08,44,15.80
2014,04,30,08,45,15.80
2014,04,30,08,46,15.80
2014,04,30,08,47,15.80
2014,04,30,08,48,15.90
2014,04,30,08,49,15.90
2014,04,30,08,50,16.00
2014,04,30,08,51,16.00
2014,04,30,08,52,16.10
2014,04,30,08,53,16.10
2014,04,30,08,54,16.10
2014,04,30,08,55,16.10
2014,04,30,08,56,16.10
2014,04,30,08,57,16.10
2014,04,30,08,58,16.10
2014,04,30,08,59,16.10
2014,04,30,09,00,16.20
2014,04,30,09,01,16.20
2014,04,30,09,02,16.20
2014,04,30,09,03,16.20
2014,04,30,09,04,16.30
2014,04,30,09,05,16.30
2014,04,30,09,06,16.30
2014,04,30,09,07,16.30
2014,04,30,09,08,16.40
2014,04,30,09,09,16.40
2014,04,30,09,10,16.50
2014,04,30,09,11,16.50
2014,04,30,09,12,16.60
2014,04,30,09,13,16.60
2014,04,30,09,14,16.60
2014,04,30,09,15,16.70
2014,04,30,09,16,16.70
2014,04,30,09,17,16.80
2014,04,30,09,18,16.80
2014,04,30,09,19,16.80
2014,04,30,09,20,16.80
2014,04,30,09,21,16.90
2014,04,30,09,22,16.90
2014,04,30,09,23,16.90
2014,04,30,09,24,16.90
2014,04,30,09,25,16.90
2014,04,30,09,26,16.90
2014,04,30,09,27,16.90
2014,04,30,09,28,16.90
2014,04,30,09,29,16.90
2014,04,30,09,30,16.90
2014,04,30,09,31,16.90
2014,04,30,09,32,16.90
2014,04,30,09,33,17.00
2014,04,30,09,34,17.00
2014,04,30,09,35,17.00
2014,04,30,09,36,17.10
2014,04,30,09,37,17.10
2014,04,30,09,38,17.10
2014,04,30,09,39,17.10
2014,04,30,09,40,17.10
2014,04,30,09,41,17.20
2014,04,30,09,42,17.20
2014,04,30,09,43,17.30
2014,04,30,09,44,17.30
2014,04,30,09,45,17.40
2014,04,30,09,46,17.40
2014,04,30,09,47,17.40
2014,04,30,09,48,17.40
2014,04,30,09,49,17.40
2014,04,30,09,50,17.30
2014,04,30,09,51,17.30
2014,04,30,09,52,17.20
2014,04,30,09,53,17.20
2014,04,30,09,54,17.10
2014,04,30,09,55,17.10
2014,04,30,09,56,17.10
2014,04,30,09,57,17.10
2014,04,30,09,58,17.10
2014,04,30,09,59,17.10
2014,04,30,10,00,17.10
2014,04,30,10,01,17.20
2014,04,30,10,02,17.20
2014,04,30,10,03,17.20
2014,04,30,10,04,17.30
2014,04,30,10,05,17.30
2014,04,30,10,06,17.30
2014,04,30,10,07,17.30
2014,04,30,10,08,17.30
2014,04,30,10,09,17.30
2014,04,30,10,10,17.30
2014,04,30,10,11,17.40
2014,04,30,10,12,17.40
2014,04,30,10,13,17.40
2014,04,30,10,14,17.40
2014,04,30,10,15,17.40
2014,04,30,10,16,17.50
2014,04,30,10,17,17.50
2014,04,30,10,18,17.60
2014,04,30,10,19,17.60
2014,04,30,10,20,17.60
2014,04,30,10,21,17.60
2014,04,30,10,22,17.60
2014,04,30,10,23,17.70
2014,04,30,10,24,17.70
2014,04,30,10,25,17.80
2014,04,30,10,26,17.80
2014,04,30,10,27,17.90
2014,04,30,10,28,17.90
2014,04,30,10,29,18.00
2014,04,30,10,30,18.10
2014,04,30,10,31,18.20
2014,04,30,10,32,18.30
2014,04,30,10,33,18.40
2014,04,30,10,34,18.50
2014,04,30,10,35,18.50
2014,04,30,10,36,18.60
2014,04,30,10,37,18.60
2014,04,30,10,38,18.70
2014,04,30,10,39,18.80
2014,04,30,10,40,18.80
2014,04,30,10,41,18.90
2014,04,30,10,42,19.00
2014,04,30,10,43,19.00
2014,04,30,10,44,19.10
2014,04,30,10,45,19.20
2014,04,30,10,46,19.30
2014,04,30,10,47,19.40
2014,04,30,10,48,19.40
2014,04,30,10,49,19.50
2014,04,30,10,50,19.50
2014,04,30,10,51,19.60
2014,04,30,10,52,19.60
2014,04,30,10,53,19.60
2014,04,30,10,54,19.60
2014,04,30,10,55,19.70
2014,04,30,10,56,19.70
2014,04,30,10,57,19.70
2014,04,30,10,58,19.70
2014,04,30,10,59,19.70
2014,04,30,11,00,19.80
2014,04,30,11,01,19.80
2014,04,30,11,02,19.80
2014,04,30,11,03,19.80
2014,04,30,11,04,19.80
2014,04,30,11,05,19.80
2014,04,30,11,06,19.70
2014,04,30,11,07,19.70
2014,04,30,11,08,19.70
2014,04,30,11,09,19.70
2014,04,30,11,10,19.70
2014,04,30,11,11,19.70
2014,04,30,11,12,19.70
2014,04,30,11,13,19.60
2014,04,30,11,14,19.60
2014,04,30,11,15,19.60
2014,04,30,11,16,19.60
2014,04,30,11,17,19.60
2014,04,30,11,18,19.60
2014,04,30,11,19,19.50
2014,04,30,11,20,19.50
2014,04,30,11,21,19.50
2014,04,30,11,22,19.50
2014,04,30,11,23,19.40
2014,04,30,11,24,19.40
2014,04,30,11,25,19.50
2014,04,30,11,26,19.50
2014,04,30,11,27,19.50
2014,04,30,11,28,19.50
2014,04,30,11,29,19.50
2014,04,30,11,30,19.50
2014,04,30,11,31,19.60
2014,04,30,11,32,19.60
2014,04,30,11,33,19.60
2014,04,30,11,34,19.60
2014,04,30,11,35,19.70
2014,04,30,11,36,19.70
2014,04,30,11,37,19.70
2014,04,30,11,38,19.70
2014,04,30,11,39,19.70
2014,04,30,11,40,19.70
2014,04,30,11,41,19.70
2014,04,30,11,42,19.70
2014,04,30,11,43,19.70
2014,04,30,11,44,19.80
2014,04,30,11,45,19.80
2014,04,30,11,46,19.70
2014,04,30,11,47,19.70
2014,04,30,11,48,19.70
2014,04,30,11,49,19.70
2014,04,30,11,50,19.70
2014,04,30,11,51,19.70
2014,04,30,11,52,19.60
2014,04,30,11,53,19.60
2014,04,30,11,54,19.60
2014,04,30,11,55,19.70
2014,04,30,11,56,19.60
2014,04,30,11,57,19.70
2014,04,30,11,58,19.70
2014,04,30,11,59,19.70
2014,04,30,12,00,19.80
2014,04,30,12,01,19.80
2014,04,30,12,02,19.70
2014,04,30,12,03,19.70
2014,04,30,12,04,19.70
2014,04,30,12,05,19.70
2014,04,30,12,06,19.70
2014,04,30,12,07,19.70
2014,04,30,12,08,19.80
2014,04,30,12,09,19.80
2014,04,30,12,10,19.80
2014,04,30,12,11,19.90
2014,04,30,12,12,19.90
2014,04,30,12,13,19.90
2014,04,30,12,14,19.90
2014,04,30,12,15,19.90
2014,04,30,12,16,19.90
2014,04,30,12,17,20.00
2014,04,30,12,18,20.10
2014,04,30,12,19,20.10
2014,04,30,12,20,20.10
2014,04,30,12,21,20.20
2014,04,30,12,22,20.20
2014,04,30,12,23,20.30
2014,04,30,12,24,20.30
2014,04,30,12,25,20.40
2014,04,30,12,26,20.40
2014,04,30,12,27,20.50
2014,04,30,12,28,20.60
2014,04,30,12,29,20.70
2014,04,30,12,30,20.80
2014,04,30,12,31,20.90
2014,04,30,12,32,20.90
2014,04,30,12,33,21.00
2014,04,30,12,34,21.10
2014,04,30,12,35,21.10
2014,04,30,12,36,21.20
2014,04,30,12,37,21.20
2014,04,30,12,38,21.30
2014,04,30,12,39,21.30
2014,04,30,12,40,21.30
2014,04,30,12,41,21.30
2014,04,30,12,42,21.30
2014,04,30,12,43,21.30
2014,04,30,12,44,21.30
2014,04,30,12,45,21.30
2014,04,30,12,46,21.40
2014,04,30,12,47,21.40
2014,04,30,12,48,21.50
2014,04,30,12,49,21.60
2014,04,30,12,50,21.60
2014,04,30,12,51,21.50
2014,04,30,12,52,21.50
2014,04,30,12,53,21.50
2014,04,30,12,54,21.50
2014,04,30,12,55,21.50
2014,04,30,12,56,21.50
2014,04,30,12,57,21.50
2014,04,30,12,58,21.60
2014,04,30,12,59,21.60
2014,04,30,13,00,21.70
2014,04,30,13,01,21.80
2014,04,30,13,02,21.80
2014,04,30,13,03,21.90
2014,04,30,13,04,21.90
2014,04,30,13,05,22.00
2014,04,30,13,06,22.00
2014,04,30,13,07,22.00
2014,04,30,13,08,22.10
2014,04,30,13,09,22.00
2014,04,30,13,10,22.00
2014,04,30,13,11,22.00
2014,04,30,13,12,22.00
2014,04,30,13,13,22.10
2014,04,30,13,14,22.10
2014,04,30,13,15,22.10
2014,04,30,13,16,22.20
2014,04,30,13,17,22.20
2014,04,30,13,18,22.30
2014,04,30,13,19,22.40
2014,04,30,13,20,22.40
2014,04,30,13,21,22.40
2014,04,30,13,22,22.50
2014,04,30,13,23,22.50
2014,04,30,13,24,22.50
2014,04,30,13,25,22.50
2014,04,30,13,26,22.50
2014,04,30,13,27,22.50
2014,04,30,13,28,22.60
2014,04,30,13,29,22.70
2014,04,30,13,30,22.70
2014,04,30,13,31,22.70
2014,04,30,13,32,22.80
2014,04,30,13,33,22.80
2014,04,30,13,34,22.90
2014,04,30,13,35,22.90
2014,04,30,13,36,23.00
2014,04,30,13,37,23.10
2014,04,30,13,38,23.20
2014,04,30,13,39,23.30
2014,04,30,13,40,23.40
2014,04,30,13,41,23.40
2014,04,30,13,42,23.40
2014,04,30,13,43,23.30
2014,04,30,13,44,23.30
2014,04,30,13,45,23.30
2014,04,30,13,46,23.30
2014,04,30,13,47,23.30
2014,04,30,13,48,23.30
2014,04,30,13,49,23.30
2014,04,30,13,50,23.30
2014,04,30,13,51,23.30
2014,04,30,13,52,23.30
2014,04,30,13,53,23.30
2014,04,30,13,54,23.30
2014,04,30,13,55,23.40
2014,04,30,13,56,23.40
2014,04,30,13,57,23.40
2014,04,30,13,58,23.40
2014,04,30,13,59,23.50
2014,04,30,14,00,23.50
2014,04,30,14,01,23.60
2014,04,30,14,02,23.60
2014,04,30,14,03,23.60
2014,04,30,14,04,23.50
2014,04,30,14,05,23.50
2014,04,30,14,06,23.40
2014,04,30,14,07,23.40
2014,04,30,14,08,23.30
2014,04,30,14,09,23.30
2014,04,30,14,10,23.30
2014,04,30,14,11,23.30
2014,04,30,14,12,23.30
2014,04,30,14,13,23.30
2014,04,30,14,14,23.30
2014,04,30,14,15,23.30
2014,04,30,14,16,23.30
2014,04,30,14,17,23.20
2014,04,30,14,18,23.20
2014,04,30,14,19,23.20
2014,04,30,14,20,23.20
2014,04,30,14,21,23.30
2014,04,30,14,22,23.30
2014,04,30,14,23,23.40
2014,04,30,14,24,23.50
2014,04,30,14,25,23.60
2014,04,30,14,26,23.70
2014,04,30,14,27,23.70
2014,04,30,14,28,23.70
2014,04,30,14,29,23.70
2014,04,30,14,30,23.60
2014,04,30,14,31,23.60
2014,04,30,14,32,23.60
2014,04,30,14,33,23.60
2014,04,30,14,34,23.70
2014,04,30,14,35,23.70
2014,04,30,14,36,23.70
2014,04,30,14,37,23.70
2014,04,30,14,38,23.70
2014,04,30,14,39,23.70
2014,04,30,14,40,23.80
2014,04,30,14,41,23.80
2014,04,30,14,42,23.80
2014,04,30,14,43,23.90
2014,04,30,14,44,23.90
2014,04,30,14,45,23.90
2014,04,30,14,46,23.90
2014,04,30,14,47,23.90
2014,04,30,14,48,23.90
2014,04,30,14,49,23.90
2014,04,30,14,50,23.90
2014,04,30,14,51,23.90
2014,04,30,14,52,23.90
2014,04,30,14,53,23.90
2014,04,30,14,54,23.90
2014,04,30,14,55,24.00
2014,04,30,14,56,24.00
2014,04,30,14,57,24.00
2014,04,30,14,58,23.90
2014,04,30,14,59,23.90
2014,04,30,15,00,23.90
2014,04,30,15,01,23.90
2014,04,30,15,02,23.90
2014,04,30,15,03,23.90
2014,04,30,15,04,23.90
2014,04,30,15,05,24.00
2014,04,30,15,06,24.00
2014,04,30,15,07,24.10
2014,04,30,15,08,24.10
2014,04,30,15,09,24.20
2014,04,30,15,10,24.20
2014,04,30,15,11,24.30
2014,04,30,15,12,24.30
2014,04,30,15,13,24.30
2014,04,30,15,14,24.30
2014,04,30,15,15,24.30
2014,04,30,15,16,24.30
2014,04,30,15,17,24.30
2014,04,30,15,18,24.30
2014,04,30,15,19,24.30
2014,04,30,15,20,24.40
2014,04,30,15,21,24.40
2014,04,30,15,22,24.40
2014,04,30,15,23,24.30
2014,04,30,15,24,24.20
2014,04,30,15,25,24.00
2014,04,30,15,26,23.90
2014,04,30,15,27,23.70
2014,04,30,15,28,23.50
2014,04,30,15,29,23.30
2014,04,30,15,30,23.10
2014,04,30,15,31,23.00
2014,04,30,15,32,22.90
2014,04,30,15,33,22.70
2014,04,30,15,34,22.60
2014,04,30,15,35,22.60
2014,04,30,15,36,22.50
2014,04,30,15,37,22.50
2014,04,30,15,38,22.40
2014,04,30,15,39,22.40
2014,04,30,15,40,22.30
2014,04,30,15,41,22.20
2014,04,30,15,42,22.10
2014,04,30,15,43,22.00
2014,04,30,15,44,21.90
2014,04,30,15,45,21.80
2014,04,30,15,46,21.70
2014,04,30,15,47,21.60
2014,04,30,15,48,21.50
2014,04,30,15,49,21.40
2014,04,30,15,50,21.40
2014,04,30,15,51,21.30
2014,04,30,15,52,21.30
2014,04,30,15,53,21.30
2014,04,30,15,54,21.20
2014,04,30,15,55,21.20
2014,04,30,15,56,21.20
2014,04,30,15,57,21.10
2014,04,30,15,58,21.10
2014,04,30,15,59,21.00
2014,04,30,16,00,21.00
2014,04,30,16,01,20.90
2014,04,30,16,02,20.90
2014,04,30,16,03,20.80
2014,04,30,16,04,20.80
2014,04,30,16,05,20.70
2014,04,30,16,06,20.70
2014,04,30,16,07,20.70
2014,04,30,16,08,20.80
2014,04,30,16,09,20.80
2014,04,30,16,10,20.80
2014,04,30,16,11,20.80
2014,04,30,16,12,20.80
2014,04,30,16,13,20.90
2014,04,30,16,14,20.90
2014,04,30,16,15,20.90
2014,04,30,16,16,20.90
2014,04,30,16,17,20.80
2014,04,30,16,18,20.80
2014,04,30,16,19,20.80
2014,04,30,16,20,20.70
2014,04,30,16,21,20.60
2014,04,30,16,22,20.50
2014,04,30,16,23,20.50
2014,04,30,16,24,20.40
2014,04,30,16,25,20.30
2014,04,30,16,26,20.30
2014,04,30,16,27,20.20
2014,04,30,16,28,20.10
2014,04,30,16,29,20.10
2014,04,30,16,30,20.00
2014,04,30,16,31,19.90
2014,04,30,16,32,19.80
2014,04,30,16,33,19.70
2014,04,30,16,34,19.70
2014,04,30,16,35,19.50
2014,04,30,16,36,19.50
2014,04,30,16,37,19.40
2014,04,30,16,38,19.40
2014,04,30,16,39,19.40
2014,04,30,16,40,19.40
2014,04,30,16,41,19.50
2014,04,30,16,42,19.50
2014,04,30,16,43,19.50
2014,04,30,16,44,19.50
2014,04,30,16,45,19.50
2014,04,30,16,46,19.40
2014,04,30,16,47,19.40
2014,04,30,16,48,19.30
2014,04,30,16,49,19.40
2014,04,30,16,50,19.40
2014,04,30,16,51,19.40
2014,04,30,16,52,19.30
2014,04,30,16,53,19.30
2014,04,30,16,54,19.30
2014,04,30,16,55,19.30
2014,04,30,16,56,19.30
2014,04,30,16,57,19.30
2014,04,30,16,58,19.30
2014,04,30,16,59,19.30
2014,04,30,17,00,19.30
2014,04,30,17,01,19.30
2014,04,30,17,02,19.30
2014,04,30,17,03,19.30
2014,04,30,17,04,19.30
2014,04,30,17,05,19.30
2014,04,30,17,06,19.20
2014,04,30,17,07,19.20
2014,04,30,17,08,19.20
2014,04,30,17,09,19.20
2014,04,30,17,10,19.20
2014,04,30,17,11,19.20
2014,04,30,17,12,19.20
2014,04,30,17,13,19.20
2014,04,30,17,14,19.20
2014,04,30,17,15,19.20
2014,04,30,17,16,19.20
2014,04,30,17,17,19.20
2014,04,30,17,18,19.20
2014,04,30,17,19,19.30
2014,04,30,17,20,19.30
2014,04,30,17,21,19.30
2014,04,30,17,22,19.20
2014,04,30,17,23,19.20
2014,04,30,17,24,19.20
2014,04,30,17,25,19.10